When you browse on this site, cookies collect data to enhance your experience and personalize the content and advertising you see.
Visit our Privacy Policy to learn more. By continuing to use the site, you agree to this use of cookies and data.
  • In Spain
  • List of Countries
  • For 7 days
  • Water Temperature
  • Satellite Maps
  • Weather Map
  • Weather Widgets
  • user-avatar
    Login

    Hourly Weather Shibenik

    Today, 19 June, Wednesday

    Time Temperature Precipitation Wind Pressure Humidity
    00:00 +17°C° 0.3 mm 0 mps 741 mmHg 95%
    01:00 +17°C° 0 mm 0 mps 741 mmHg 95%
    02:00 +16°C° 0.1 mm 0 mps 741 mmHg 95%
    03:00 +16°C° 0.1 mm 0 mps 740 mmHg 96%
    04:00 +16°C° 0.1 mm 0 mps 740 mmHg 96%
    05:00 +17°C° 0 mm 0 mps 740 mmHg 95%
    06:00 +18°C° 0 mm 0 mps 740 mmHg 93%
    07:00 +20°C° 0 mm 0 mps 741 mmHg 92%
    08:00 +22°C° 0 mm 0 mps 741 mmHg 81%
    09:00 +25°C° 0 mm 0 mps 741 mmHg 70%
    10:00 +28°C° 0 mm 0 mps 741 mmHg 59%
    11:00 +29°C° 0 mm 0 mps 741 mmHg 53%
    12:00 +30°C° 0 mm 0 mps 740 mmHg 46%
    13:00 +33°C° 0 mm 1 mps 740 mmHg 40%
    14:00 +32°C° 0 mm 1 mps 740 mmHg 40%
    15:00 +32°C° 0 mm 1 mps 740 mmHg 41%
    16:00 +31°C° 0 mm 1 mps 739 mmHg 42%
    17:00 +29°C° 0 mm 1 mps 739 mmHg 52%
    18:00 +27°C° 0 mm 1 mps 739 mmHg 63%
    19:00 +25°C° 0 mm 1 mps 739 mmHg 74%
    20:00 +24°C° 0 mm 1 mps 739 mmHg 76%
    21:00 +22°C° 0 mm 1 mps 739 mmHg 78%
    22:00 +21°C° 0 mm 1 mps 739 mmHg 79%
    23:00 +20°C° 0 mm 1 mps 739 mmHg 81%

    Tomorrow, 20 June, Thursday

    Time Temperature Precipitation Wind Pressure Humidity
    00:00 +20°C° 0 mm 1 mps 739 mmHg 83%
    01:00 +19°C° 0 mm 1 mps 739 mmHg 85%
    02:00 +19°C° 0 mm 1 mps 739 mmHg 84%
    03:00 +18°C° 0 mm 1 mps 739 mmHg 84%
    04:00 +18°C° 0 mm 1 mps 739 mmHg 84%
    05:00 +20°C° 0 mm 1 mps 739 mmHg 79%
    06:00 +22°C° 0 mm 1 mps 739 mmHg 73%
    07:00 +23°C° 0 mm 1 mps 740 mmHg 68%
    08:00 +26°C° 0 mm 1 mps 740 mmHg 62%
    09:00 +28°C° 0 mm 1 mps 740 mmHg 56%
    10:00 +30°C° 0 mm 1 mps 740 mmHg 50%
    11:00 +31°C° 0 mm 1 mps 740 mmHg 47%
    12:00 +32°C° 0 mm 1 mps 740 mmHg 43%
    13:00 +33°C° 0 mm 1 mps 739 mmHg 40%
    14:00 +33°C° 0 mm 1 mps 739 mmHg 40%
    15:00 +33°C° 0 mm 1 mps 739 mmHg 40%
    16:00 +33°C° 0 mm 1 mps 739 mmHg 41%
    17:00 +29°C° 0.3 mm 1 mps 739 mmHg 55%
    18:00 +26°C° 0.3 mm 1 mps 739 mmHg 69%
    19:00 +23°C° 0.3 mm 1 mps 739 mmHg 83%
    20:00 +22°C° 0.1 mm 1 mps 739 mmHg 85%
    21:00 +21°C° 0.1 mm 1 mps 739 mmHg 87%
    22:00 +20°C° 0.1 mm 1 mps 740 mmHg 89%
    23:00 +20°C° 0 mm 1 mps 740 mmHg 89%

    Day after tomorrow, 21 June, Friday

    Time Temperature Precipitation Wind Pressure Humidity
    00:00 +19°C° 0 mm 1 mps 740 mmHg 89%
    01:00 +19°C° 0 mm 1 mps 740 mmHg 89%
    02:00 +18°C° 0 mm 1 mps 740 mmHg 89%
    03:00 +18°C° 0 mm 1 mps 740 mmHg 90%
    04:00 +15°C° 0 mm 0 mps 741 mmHg 90%
    05:00 +18°C° 0 mm 1 mps 741 mmHg 88%
    06:00 +20°C° 0 mm 1 mps 741 mmHg 85%
    07:00 +21°C° 0 mm 1 mps 741 mmHg 82%
    08:00 +23°C° 0 mm 1 mps 742 mmHg 75%
    09:00 +26°C° 0 mm 1 mps 742 mmHg 67%
    10:00 +28°C° 0 mm 1 mps 742 mmHg 60%
    11:00 +29°C° 0 mm 1 mps 742 mmHg 55%
    12:00 +30°C° 0 mm 1 mps 742 mmHg 51%
    13:00 +32°C° 0 mm 1 mps 742 mmHg 46%
    14:00 +31°C° 0 mm 1 mps 741 mmHg 46%
    15:00 +31°C° 0 mm 1 mps 741 mmHg 45%
    16:00 +31°C° 0 mm 1 mps 741 mmHg 45%
    17:00 +29°C° 0 mm 1 mps 741 mmHg 55%
    18:00 +27°C° 0 mm 1 mps 741 mmHg 65%
    19:00 +25°C° 0 mm 1 mps 741 mmHg 76%
    20:00 +24°C° 0.6 mm 1 mps 741 mmHg 81%
    21:00 +22°C° 0.6 mm 1 mps 741 mmHg 86%
    22:00 +21°C° 0.6 mm 1 mps 742 mmHg 91%
    23:00 +20°C° 0.4 mm 1 mps 741 mmHg 93%

    22 June, Saturday

    Time Temperature Precipitation Wind Pressure Humidity
    00:00 +18°C° 0.4 mm 0 mps 741 mmHg 94%
    01:00 +17°C° 0.4 mm 0 mps 741 mmHg 96%
    02:00 +16°C° 0.1 mm 0 mps 741 mmHg 96%
    03:00 +16°C° 0.1 mm 0 mps 741 mmHg 96%
    04:00 +16°C° 0.1 mm 0 mps 741 mmHg 97%
    05:00 +17°C° 0 mm 0 mps 741 mmHg 86%
    06:00 +19°C° 0 mm 0 mps 741 mmHg 82%
    07:00 +21°C° 0 mm 0 mps 742 mmHg 77%
    08:00 +23°C° 0 mm 0 mps 742 mmHg 70%
    09:00 +25°C° 0 mm 0 mps 742 mmHg 62%
    10:00 +28°C° 0 mm 0 mps 742 mmHg 54%
    11:00 +31°C° 0 mm 1 mps 741 mmHg 49%
    12:00 +32°C° 0 mm 1 mps 741 mmHg 45%
    13:00 +34°C° 0 mm 1 mps 741 mmHg 40%
    14:00 +34°C° 0 mm 1 mps 740 mmHg 40%
    15:00 +33°C° 0 mm 1 mps 740 mmHg 40%
    16:00 +33°C° 0 mm 1 mps 740 mmHg 40%
    17:00 +31°C° 0 mm 1 mps 740 mmHg 50%
    18:00 +28°C° 0 mm 1 mps 740 mmHg 61%
    19:00 +26°C° 0 mm 1 mps 740 mmHg 71%
    20:00 +24°C° 0 mm 1 mps 740 mmHg 73%
    21:00 +23°C° 0 mm 1 mps 740 mmHg 74%
    22:00 +21°C° 0 mm 1 mps 740 mmHg 75%
    23:00 +21°C° 0 mm 1 mps 740 mmHg 77%

    23 June, Sunday

    Time Temperature Precipitation Wind Pressure Humidity
    00:00 +20°C° 0 mm 1 mps 740 mmHg 78%
    01:00 +20°C° 0 mm 1 mps 740 mmHg 79%
    02:00 +19°C° 0 mm 1 mps 740 mmHg 79%
    03:00 +19°C° 0 mm 1 mps 740 mmHg 80%
    04:00 +19°C° 0 mm 1 mps 740 mmHg 80%
    05:00 +20°C° 0 mm 1 mps 741 mmHg 75%
    06:00 +20°C° 0 mm 0 mps 741 mmHg 71%
    07:00 +22°C° 0 mm 0 mps 742 mmHg 67%
    08:00 +25°C° 0 mm 1 mps 742 mmHg 63%
    09:00 +27°C° 0 mm 1 mps 742 mmHg 58%
    10:00 +29°C° 0 mm 1 mps 743 mmHg 54%
    11:00 +30°C° 0 mm 1 mps 743 mmHg 51%
    12:00 +31°C° 0 mm 1 mps 743 mmHg 48%
    13:00 +32°C° 0 mm 1 mps 743 mmHg 45%
    14:00 +32°C° 0 mm 1 mps 742 mmHg 46%
    15:00 +32°C° 0 mm 1 mps 742 mmHg 47%
    16:00 +32°C° 0 mm 2 mps 742 mmHg 48%
    17:00 +30°C° 0.1 mm 2 mps 742 mmHg 59%
    18:00 +28°C° 0.1 mm 2 mps 742 mmHg 70%
    19:00 +26°C° 0.1 mm 2 mps 742 mmHg 80%
    20:00 +24°C° 0.1 mm 1 mps 743 mmHg 85%
    21:00 +23°C° 0.1 mm 1 mps 743 mmHg 89%
    22:00 +22°C° 0.1 mm 1 mps 744 mmHg 93%
    23:00 +21°C° 0.3 mm 1 mps 744 mmHg 94%

    24 June, Monday

    Time Temperature Precipitation Wind Pressure Humidity
    00:00 +21°C° 0.3 mm 1 mps 744 mmHg 95%
    01:00 +20°C° 0.3 mm 1 mps 745 mmHg 96%
    02:00 +20°C° 0 mm 1 mps 745 mmHg 97%
    03:00 +20°C° 0 mm 1 mps 745 mmHg 97%
    04:00 +19°C° 0 mm 1 mps 745 mmHg 97%
    05:00 +20°C° 0 mm 1 mps 745 mmHg 94%
    06:00 +19°C° 0 mm 2 mps 746 mmHg 91%
    07:00 +20°C° 0 mm 2 mps 746 mmHg 88%
    08:00 +21°C° 0 mm 2 mps 746 mmHg 80%
    09:00 +23°C° 0 mm 2 mps 747 mmHg 72%
    10:00 +24°C° 0 mm 3 mps 747 mmHg 63%
    11:00 +25°C° 0 mm 3 mps 747 mmHg 61%
    12:00 +26°C° 0 mm 3 mps 747 mmHg 58%
    13:00 +27°C° 0 mm 2 mps 747 mmHg 56%
    14:00 +27°C° 0 mm 2 mps 747 mmHg 56%
    15:00 +27°C° 0 mm 2 mps 746 mmHg 56%
    16:00 +27°C° 0 mm 2 mps 746 mmHg 57%
    17:00 +26°C° 0 mm 2 mps 746 mmHg 64%
    18:00 +25°C° 0 mm 2 mps 747 mmHg 71%
    19:00 +23°C° 0 mm 1 mps 747 mmHg 79%
    20:00 +22°C° 0 mm 1 mps 747 mmHg 81%
    21:00 +21°C° 0 mm 1 mps 747 mmHg 83%
    22:00 +19°C° 0 mm 1 mps 748 mmHg 85%
    23:00 +16°C° 0 mm 0 mps 748 mmHg 87%
    Show more